Home > Weather > Belém > Past weeks

Flag for Brazil Weather for the Past 2 Weeks in Belém, Pará, Brazil

Now
75 °F

Passing clouds.


Feels Like: 75 °F
Forecast: 74 / 86 °F
Wind: 3 mph from East

Location: Belem Aeroporto

Current Time: Feb 13, 2016 at 11:39:22 PM

Latest Report: Feb 13, 2016 at 10:00 PM


Visibility: N/A

Pressure: 29.92 "Hg

Humidity: 89%

Dew point: 72 °F

Location of BelémLocation

Historic Weather in Belém — Graph

°F

Belém Temperature Yesterday

Maximum temperature yesterday: 84 °F (at 11:00 AM)
Minimum temperature yesterday: 77 °F (at 12:00 AM)
Average temperature yesterday: 79 °F

High & Low Weather Summary for the Past Weeks

 TemperatureHumidityPressure
High91 °F (Feb 9, 1:00 PM)100% (Feb 4, 6:00 AM)29.98 "Hg (Feb 4, 6:00 AM)
Low37 °F (Feb 13, 2:00 PM)56% (Feb 9, 1:00 PM)29.77 "Hg (Feb 3, 5:00 PM)
Average78 °F86%29.88 "Hg
* Reported Jan 29 10:00 PM — Feb 13 10:00 PM, Belém, Weather by CustomWeather, © 2016

Note: Actual official high and low records may vary slightly from our data, if they occured in-between our weather recording intervals... More about our weather records

Advertising

Belém Weather History for the Previous 24 Hours

 ConditionsComfort  
Time TempWeatherWind HumidityBarometerVisibility
10:00 PM
Sat, Feb 13
75 °FPassing clouds.3 mph89%29.92 "HgN/A
9:00 PM75 °FPartly cloudy.8 mph94%29.89 "HgN/A
8:00 PM75 °FPartly cloudy.8 mph94%29.86 "HgN/A
7:00 PM75 °FPassing clouds.10 mph94%29.83 "HgN/A
6:00 PM79 °FThunderstorms. Partly sunny.8 mph84%29.83 "Hg5 mi
5:00 PM81 °FBroken clouds.3 mph84%29.80 "HgN/A
4:00 PM81 °FBroken clouds.3 mph84%29.80 "HgN/A
3:00 PM79 °FLight rain. Broken clouds.5 mph94%29.83 "Hg3 mi
2:00 PM37 °FRain. Partly sunny.14 mph100%29.89 "Hg1 mi
1:00 PM81 °FScattered showers. Broken clouds.10 mph79%N/AN/A
12:00 PM82 °FPartly sunny.7 mph84%29.92 "HgN/A
11:00 AM82 °FPartly sunny.6 mph79%29.92 "HgN/A
10:00 AM84 °FPartly sunny.7 mph74%29.92 "HgN/A
9:00 AM81 °FBroken clouds.7 mph84%29.92 "HgN/A
8:00 AM79 °FBroken clouds.2 mph94%29.92 "Hg5 mi
7:00 AM77 °FScattered clouds.2 mph94%29.89 "HgN/A
6:00 AM77 °FPassing clouds.3 mph94%29.86 "HgN/A
5:00 AM77 °FClear.3 mph94%29.83 "Hg10 mi
4:00 AM77 °FClear.1 mph89%29.77 "Hg10 mi
3:00 AM77 °FPassing clouds.2 mph89%29.83 "HgN/A
2:00 AM77 °FPassing clouds.3 mph94%29.86 "HgN/A
1:00 AM77 °FClear.5 mph94%29.89 "Hg10 mi
12:00 AM77 °FClear.2 mph89%29.89 "Hg10 mi
11:00 PM
Fri, Feb 12
77 °FClear.2 mph89%29.89 "Hg10 mi
Weather by CustomWeather, © 2016

See weather overviewHow to use our weather pages